Regional Weather Roundup
Issued by NWS Nashville, TN

Home | Current Version | Previous Version | Text Only | Print | Product List | Glossary On
Versions: 1 2 3 4 5 6 7 8 9 10 11 12 13 14 15 16 17 18 19 20 21 22 23 24 25 26 27 28 29 30 31 32 33 34 35 36 37 38 39 40 41 42 43 44 45 46 47 48 49 50
000
ASUS44 KOHX 020110
RWROHX
MIDDLE TENNESSEE HOURLY WEATHER ROUNDUP
NATIONAL WEATHER SERVICE NASHVILLE TN
800 PM CDT SAT AUG 01 2015

NOTE: "FAIR" INDICATES FEW OR NO CLOUDS BELOW 12,000 FEET WITH
NO SIGNIFICANT WEATHER AND/OR OBSTRUCTIONS TO VISIBILITY.

* THESE REPORTS ARE NOT UNDER NWS QUALITY CONTROL AND MAY NOT
  REPORT WEATHER SUCH AS PRECIPITATION AND FOG.


TNZ005>011-023>034-057-059-062>066-078-080-020200
...NORTHERN MIDDLE TENNESSEE...

CITY           SKY/WX    TMP DP  RH WIND       PRES   REMARKS
CLARKSVILLE    CLEAR     80  69  69 N6        29.97R
CROSSVILLE     CLEAR     76  62  62 N3        30.04R
DICKSON        CLEAR     79  72  78 CALM      29.98S
NASHVILLE      PTCLDY    84  66  54 N8        29.97R
ROCKWOOD       CLEAR     75  69  81 N5        30.02S
SMYRNA         PTCLDY    84  67  56 N8        29.97R
$$
TNZ056-058-060-061-075>077-079-093>097-020200
...SOUTHERN MIDDLE TENNESSEE...

CITY           SKY/WX    TMP DP  RH WIND       PRES   REMARKS
COLUMBIA       CLEAR     84  70  61 CALM      29.96R
LEWISBURG      CLOUDY    78  64  61 W3        29.97R
MCMINNVILLE    CLEAR     77  68  73 CALM      29.99R
SHELBYVILLE    CLEAR     81  66  61 CALM      29.98R
TULLAHOMA      CLEAR     79  66  65 CALM      29.99S
WINCHESTER     CLEAR     79  66  65 CALM      29.97S
$$


...KEY TO REMARKS...
VSB - VISIBILITY IN MILES
WCI - WIND CHILL INDEX
HX  - HEAT INDEX




USA.gov is the U.S. government's official web portal to all federal, state and local government web resources and services.